Date,TemperatureHighF,TemperatureAvgF,TemperatureLowF,DewpointHighF,DewpointAvgF,DewpointLowF,HumidityHigh,HumidityAvg,HumidityLow,PressureMaxIn,PressureMinIn,WindSpeedMaxMPH,WindSpeedAvgMPH,GustSpeedMaxMPH,PrecipitationSumIn
2013-4-1,93.9,79.3,68.9,78.1,73.3,68.6,99,84,59,30.03,29.91,7,1,9,0.00
2013-4-2,95.2,80.8,69.1,78.5,73.7,68.8,99,81,56,29.98,29.85,7,1,10,0.00
2013-4-3,92.7,81.3,72.1,78.7,74.7,71.2,99,82,55,30.00,29.87,8,2,12,0.00
2013-4-4,91.6,79.0,73.2,76.3,73.5,70.8,99,84,61,30.07,29.94,10,3,16,0.18
2013-4-5,87.3,76.2,71.1,78.0,73.2,70.2,98,91,73,30.07,29.96,11,2,14,0.20
2013-4-6,88.5,76.7,70.7,79.0,73.4,70.1,99,90,68,30.03,29.89,9,2,13,0.30
2013-4-7,90.0,78.4,71.1,77.3,73.5,70.5,98,86,66,29.98,29.85,12,3,17,0.00
2013-4-8,83.8,77.7,73.6,77.8,74.4,71.9,99,90,81,30.00,29.90,12,4,21,0.07
2013-4-9,81.7,77.0,73.9,76.7,74.7,73.3,99,93,82,29.99,29.86,15,5,23,0.14
2013-4-10,85.8,76.1,72.3,79.9,74.3,71.4,99,95,81,29.93,29.75,6,1,9,0.69
2013-4-11,81.7,75.6,70.7,75.7,72.2,69.9,98,89,81,29.84,29.70,18,6,23,0.15
2013-4-12,85.8,77.6,73.6,76.5,73.5,71.8,97,88,74,29.85,29.72,16,6,26,0.02
2013-4-13,90.5,79.4,71.1,79.2,74.2,70.5,99,85,66,29.90,29.78,9,3,13,0.21
2013-4-14,90.7,78.9,70.0,78.3,73.8,69.2,99,86,66,29.94,29.79,8,1,14,0.00
2013-4-15,93.6,79.5,70.0,79.0,74.1,69.4,98,85,62,29.91,29.77,6,1,10,0.00
2013-4-16,90.7,77.1,69.8,79.2,73.5,69.2,99,90,67,29.96,29.83,4,0,7,0.04
2013-4-17,94.3,78.7,67.3,79.1,72.8,67.0,99,84,55,30.00,29.85,7,1,11,0.00
2013-4-18,95.9,79.8,68.7,78.4,73.0,68.4,99,82,53,30.02,29.87,6,1,10,0.00
2013-4-19,94.6,79.5,68.0,77.0,72.8,67.7,99,82,56,30.00,29.86,7,1,9,0.00
2013-4-20,93.6,78.9,66.6,79.1,72.9,66.3,99,83,57,29.95,29.80,6,0,8,0.00
2013-4-21,94.1,79.6,68.2,79.7,74.0,67.9,99,85,62,29.94,29.82,4,0,7,0.00
2013-4-22,94.5,79.5,71.1,79.9,74.7,70.5,99,87,63,29.99,29.88,4,0,26,0.00
2013-4-24,77.0,73.9,72.1,73.3,72.1,71.1,97,94,88,29.99,29.92,2,0,3,0.00
2013-4-25,93.0,79.7,68.9,76.5,72.5,68.6,99,81,57,30.05,29.91,9,2,13,0.00
2013-4-26,89.6,79.8,72.0,74.8,71.5,68.7,91,77,59,30.05,29.94,11,3,18,0.00
2013-4-27,87.6,78.1,71.2,75.3,71.1,68.2,92,80,64,30.01,29.80,13,3,18,0.01
2013-4-28,89.1,79.4,71.6,74.2,70.3,68.5,90,74,56,29.95,29.83,10,3,17,0.00
2013-4-29,86.4,78.4,70.5,75.4,72.2,69.4,98,82,68,29.95,29.85,12,4,20,0.12
2013-4-30,84.4,78.4,73.8,75.7,73.7,72.1,96,86,76,29.92,29.82,14,5,23,0.14